Content
SEND FEEDBACK

Daily
Averages
Monthly
Summary
Finland

HARKINVAARA, FINLAND


Home > Europe > Finland
Elevation: 384 feet     Latitude: 62 40N     Longitude: 029 37E

WEATHER
 
SELECT A DAY
Number of Records: 72,502;   Date Range: 6/13/98 - 9/21/14
 
SHARE

PRINT THIS DATA

[ ← Previous Day ]
WEATHER ALMANAC - JANUARY 31, 2013
[ Next Day → ]
[ °C ]   °F
Weather ElementAverageHighLow
Temperature29.1 °F30.2 °F (10:50 am)26.6 °F (12:50 am)
Dewpoint28.1 °F30.2 °F (12:20 pm)24.8 °F (12:50 am)
Humidity95.9 %100 % (3:50 am)93 % (12:50 am)
Barometer29.04 in29.06 in (12:50 am)29.00 in (3:20 am)
Wind Speed11.5 mph13.8 mph (1:20 am)
Weather ElementAverage
Visibility4.2 mi
Wind DirectionSSE (146 °)

Weather ElementTotal
Precipitation---
Heating Degree Days36.6 (Base 65)
Averaged from 48 records on January 31, 2013
WEATHER CONDITIONS BREAKOUT
WIND DIRECTION BREAKOUT
WEATHER BY HOUR - JANUARY 31, 2013
[ °C ]   °F
Local TimeTemperatureDewpointHumidityBarometerVisibilityWind DirectionWind SpeedGust SpeedPrecipitationEventsConditions
12:50 AM26.6 °F24.8 °F93 %29.06 in0.9 miSE (140°)12.7 mphSnowSnow
1:20 AM26.6 °F24.8 °F93 %29.03 in0.9 miSE (140°)13.8 mphSnowSnow
1:50 AM26.6 °F24.8 °F93 %29.03 in0.9 miSE (140°)13.8 mphSnowSnow
2:20 AM26.6 °F24.8 °F93 %29.03 inSE (140°)11.5 mphSnowLight Snow
2:50 AM26.6 °F24.8 °F93 %29.03 in0.9 miSE (140°)13.8 mphSnowSnow
3:20 AM26.6 °F24.8 °F93 %29.00 in3.7 miSE (140°)12.7 mphSnowLight Snow Grains
3:50 AM26.6 °F26.6 °F100 %29.00 in1.2 miSSE (150°)12.7 mphSnowLight Snow
4:20 AM26.6 °F26.6 °F100 %29.00 in1.3 miSSE (150°)12.7 mphSnowLight Snow
4:50 AM26.6 °F26.6 °F100 %29.00 in6.2 miSSE (150°)10.4 mphSnowLight Snow
5:20 AM28.4 °F26.6 °F93 %29.00 in6.2 miSSE (160°)10.4 mphOvercast
5:50 AM28.4 °F26.6 °F93 %29.00 in6.2 miSSE (150°)12.7 mphOvercast
6:20 AM28.4 °F26.6 °F93 %29.00 in6.2 miSSE (160°)10.4 mphOvercast
6:50 AM28.4 °F26.6 °F93 %29.03 in6.2 miSSE (160°)10.4 mphOvercast
7:20 AM28.4 °F26.6 °F93 %29.03 in6.2 miSSE (160°)10.4 mphOvercast
7:50 AM28.4 °F28.4 °F100 %29.03 in6.2 miSSE (150°)13.8 mphOvercast
8:20 AM28.4 °F26.6 °F93 %29.03 in6.2 miSSE (150°)11.5 mphOvercast
8:50 AM28.4 °F26.6 °F93 %29.03 in6.2 miSSE (150°)10.4 mphOvercast
9:20 AM28.4 °F28.4 °F100 %29.03 in1.6 miSSE (150°)11.5 mphSnowLight Snow
9:50 AM28.4 °F28.4 °F100 %29.03 in5.6 miSSE (150°)10.4 mphSnowLight Snow Showers
10:20 AM28.4 °F28.4 °F100 %29.03 in4.3 miSSE (150°)11.5 mphSnowLight Snow Showers
10:50 AM30.2 °F28.4 °F93 %29.03 in3.1 miSSE (160°)11.5 mphSnowLight Snow
11:20 AM30.2 °F28.4 °F93 %29.03 in3.1 miSSE (150°)13.8 mphSnowLight Snow
11:50 AM30.2 °F28.4 °F93 %29.06 in3.7 miSSE (150°)12.7 mphSnowLight Snow
12:20 PM30.2 °F30.2 °F100 %29.06 in3.7 miSSE (150°)11.5 mphSnowLight Snow
12:50 PM30.2 °F30.2 °F100 %29.06 in3.7 miSSE (150°)12.7 mphOvercast
1:20 PM30.2 °F30.2 °F100 %29.06 in4.3 miSE (140°)11.5 mphOvercast
1:50 PM30.2 °F30.2 °F100 %29.06 in3.7 miSE (140°)11.5 mphOvercast
2:20 PM30.2 °F30.2 °F100 %29.06 in3.7 miSSE (150°)11.5 mphOvercast
2:50 PM30.2 °F30.2 °F100 %29.06 in3.7 miSE (140°)12.7 mphOvercast
3:20 PM30.2 °F30.2 °F100 %29.06 in3.1 miSSE (150°)11.5 mphOvercast
3:50 PM30.2 °F30.2 °F100 %29.06 inSSE (150°)11.5 mphOvercast
4:20 PM30.2 °F30.2 °F100 %29.06 inSSE (150°)11.5 mphOvercast
4:50 PM30.2 °F30.2 °F100 %29.06 in2.8 miSSE (150°)11.5 mphOvercast
5:20 PM30.2 °F30.2 °F100 %29.06 in1.9 miSE (140°)11.5 mphOvercast
5:50 PM30.2 °F30.2 °F100 %29.06 in1.9 miSE (140°)11.5 mphOvercast
6:20 PM30.2 °F30.2 °F100 %29.06 in4.3 miSE (140°)10.4 mphMostly Cloudy
6:50 PM30.2 °F28.4 °F93 %29.03 in4.3 miSE (140°)10.4 mphMostly Cloudy
7:20 PM30.2 °F28.4 °F93 %29.03 in4.3 miSE (140°)11.5 mphMostly Cloudy
7:36 PM30.2 °F28.4 °F93 %29.03 in5.6 miSE (140°)10.4 mphMostly Cloudy
7:50 PM30.2 °F28.4 °F93 %29.03 in6.2 miSE (140°)11.5 mphMostly Cloudy
8:20 PM30.2 °F28.4 °F93 %29.03 in6.2 miSE (140°)10.4 mphOvercast
8:50 PM30.2 °F28.4 °F93 %29.03 in6.2 miSE (140°)10.4 mphOvercast
9:20 PM30.2 °F28.4 °F93 %29.03 in6.2 miSE (140°)10.4 mphMostly Cloudy
9:50 PM30.2 °F28.4 °F93 %29.03 in6.2 miSE (140°)9.2 mphOvercast
10:20 PM30.2 °F28.4 °F93 %29.03 in6.2 miSE (140°)8.1 mphSnowLight Snow
10:50 PM30.2 °F28.4 °F93 %29.03 in5.6 miSE (140°)10.4 mphSnowLight Snow
11:20 PM30.2 °F28.4 °F93 %29.03 in3.7 miSE (140°)10.4 mphSnowLight Snow
11:50 PM30.2 °F28.4 °F93 %29.03 in6.2 miSE (140°)10.4 mphSnowLight Snow
Hourly data recorded from EFJO, located miles away from Harkinvaara, Finland







STORIES FROM OUR PARTNERS